| time (UTC) | temp F | wind direction | speed knots | gust knots | rain 1hr in | rain 24hr in | rain mn in | humidity % | barometer mb |
| 20260508044527 | 53 | 122 | 0.0 | 0.0 | 0.00 | 1.25 | 0.00 | 99 | 1012.5 |
| 20260508043943 | 53 | 122 | 0.0 | 0.0 | 0.00 | 1.32 | 0.00 | 99 | 1012.6 |
| 20260508043434 | 53 | 122 | 0.0 | 0.0 | 0.00 | 1.36 | 0.00 | 99 | 1012.6 |
| 20260508042930 | 53 | 122 | 0.0 | 0.0 | 0.00 | 1.37 | 0.00 | 99 | 1012.5 |
| 20260508042429 | 53 | 122 | 0.0 | 0.0 | 0.00 | 1.37 | 0.00 | 99 | 1012.4 |
| 20260508042422 | 53 | 122 | 0.0 | 0.0 | 0.00 | 1.37 | 0.00 | 99 | 1012.4 |
| 20260508042026 | 54 | 122 | 0.0 | 0.0 | 0.00 | 1.37 | 0.00 | 99 | 1012.5 |
| 20260508040921 | 54 | 122 | 0.0 | 0.0 | 0.00 | 1.37 | 0.00 | 99 | 1012.6 |
| 20260508040419 | 54 | 122 | 0.0 | 0.0 | 0.00 | 1.38 | 0.00 | 99 | 1012.4 |
| 20260508035845 | 54 | 122 | 0.0 | 0.0 | 0.00 | 1.38 | 1.38 | 99 | 1012.4 |
| 20260508035824 | 54 | 122 | 0.0 | 0.0 | 0.00 | 1.38 | 1.38 | 99 | 1012.1 |
| 20260508034823 | 54 | 122 | 0.0 | 0.0 | 0.00 | 1.38 | 1.38 | 99 | 1012.0 |
| 20260508034758 | 54 | 122 | 0.0 | 0.9 | 0.00 | 1.38 | 1.38 | 99 | 1011.9 |
| 20260508033733 | 54 | 122 | 0.0 | 0.9 | 0.00 | 1.38 | 1.38 | 99 | 1011.7 |
| 20260508033235 | 54 | 122 | 0.0 | 0.9 | 0.00 | 1.38 | 1.38 | 99 | 1011.8 |
| 20260508033231 | 54 | 122 | 0.0 | 0.9 | 0.00 | 1.38 | 1.38 | 99 | 1011.7 |
| 20260508032225 | 54 | 103 | 0.0 | 0.9 | 0.00 | 1.38 | 1.38 | 99 | 1011.5 |
| 20260508032212 | 54 | 66 | 0.0 | 0.0 | 0.00 | 1.38 | 1.38 | 99 | 1011.8 |
| 20260508031815 | 54 | 83 | 0.0 | 0.9 | 0.00 | 1.38 | 1.38 | 99 | 1011.6 |
| 20260508030710 | 54 | 66 | 0.0 | 0.0 | 0.00 | 1.38 | 1.38 | 99 | 1011.7 |
| 20260508030208 | 54 | 67 | 0.0 | 0.0 | 0.00 | 1.38 | 1.38 | 99 | 1011.5 |
| 20260508025701 | 54 | 67 | 0.0 | 0.0 | 0.00 | 1.38 | 1.38 | 99 | 1011.4 |
| 20260508025200 | 54 | 67 | 0.0 | 0.0 | 0.00 | 1.38 | 1.38 | 99 | 1011.2 |
| 20260508024632 | 54 | 66 | 0.0 | 0.0 | 0.00 | 1.38 | 1.38 | 99 | 1011.1 |
| 20260508024133 | 54 | 67 | 0.0 | 0.0 | 0.00 | 1.38 | 1.38 | 99 | 1011.3 |
| 20260508023631 | 54 | 67 | 0.0 | 0.0 | 0.00 | 1.38 | 1.38 | 99 | 1011.2 |
| 20260508023128 | 54 | 67 | 0.0 | 0.0 | 0.00 | 1.38 | 1.38 | 99 | 1011.1 |
| 20260508022617 | 54 | 66 | 0.0 | 0.9 | 0.00 | 1.38 | 1.38 | 99 | 1011.3 |
| 20260508022115 | 54 | 81 | 0.0 | 0.9 | 0.00 | 1.38 | 1.38 | 99 | 1011.1 |
| 20260508021531 | 54 | 81 | 0.0 | 0.9 | 0.00 | 1.38 | 1.38 | 99 | 1010.9 |
| 20260508021031 | 54 | 82 | 0.0 | 0.9 | 0.00 | 1.38 | 1.38 | 99 | 1010.8 |
| 20260508020535 | 54 | 82 | 0.0 | 0.0 | 0.00 | 1.38 | 1.38 | 99 | 1011.1 |
| 20260508020531 | 54 | 82 | 0.0 | 0.9 | 0.00 | 1.38 | 1.38 | 99 | 1011.1 |
| 20260508015531 | 54 | 82 | 0.0 | 0.0 | 0.00 | 1.38 | 1.38 | 99 | 1011.0 |
| 20260508015031 | 54 | 82 | 0.0 | 0.0 | 0.00 | 1.38 | 1.38 | 99 | 1010.9 |
| 20260508014533 | 54 | 82 | 0.0 | 0.9 | 0.02 | 1.38 | 1.38 | 99 | 1011.0 |
| 20260508014529 | 54 | 82 | 0.0 | 0.0 | 0.00 | 1.38 | 1.38 | 99 | 1010.9 |
| 20260508013525 | 54 | 82 | 0.0 | 0.9 | 0.05 | 1.38 | 1.38 | 98 | 1010.7 |
| 20260508013003 | 54 | 82 | 0.0 | 0.9 | 0.10 | 1.38 | 1.38 | 98 | 1010.2 |
| 20260508012446 | 54 | 82 | 0.0 | 0.9 | 0.15 | 1.38 | 1.38 | 98 | 1010.2 |
| 20260508011927 | 54 | 117 | 0.0 | 0.0 | 0.16 | 1.38 | 1.38 | 98 | 1010.3 |
| 20260508011431 | 54 | 117 | 0.0 | 0.9 | 0.17 | 1.38 | 1.38 | 98 | 1010.2 |
| 20260508011426 | 54 | 117 | 0.0 | 0.9 | 0.17 | 1.38 | 1.38 | 98 | 1010.3 |
| 20260508010427 | 54 | 118 | 0.0 | 0.9 | 0.17 | 1.38 | 1.38 | 98 | 1010.3 |
| 20260508005924 | 54 | 117 | 0.0 | 0.9 | 0.17 | 1.38 | 1.38 | 98 | 1010.2 |
| 20260508005421 | 54 | 118 | 0.0 | 0.9 | 0.17 | 1.38 | 1.38 | 98 | 1010.1 |
| 20260508004921 | 54 | 118 | 0.0 | 0.9 | 0.17 | 1.38 | 1.38 | 98 | 1010.5 |
| 20260508004419 | 54 | 118 | 0.0 | 0.9 | 0.16 | 1.37 | 1.37 | 98 | 1010.1 |
| 20260508003919 | 54 | 118 | 0.0 | 0.9 | 0.15 | 1.36 | 1.36 | 97 | 1010.3 |
| 20260508003419 | 54 | 120 | 0.0 | 1.7 | 0.11 | 1.32 | 1.33 | 97 | 1010.7 |
| 20260508002902 | 54 | 120 | 0.0 | 1.7 | 0.07 | 1.28 | 1.28 | 96 | 1010.6 |
| 20260508002401 | 54 | 46 | 0.0 | 1.7 | 0.02 | 1.23 | 1.24 | 96 | 1010.1 |
| 20260508001859 | 54 | 309 | 0.0 | 1.7 | 0.01 | 1.22 | 1.22 | 95 | 1009.7 |
| 20260508001342 | 54 | 308 | 0.0 | 1.7 | 0.00 | 1.21 | 1.21 | 95 | 1009.5 |
| 20260508000840 | 54 | 322 | 0.0 | 1.7 | 0.00 | 1.21 | 1.21 | 95 | 1009.4 |
| 20260508000342 | 54 | 352 | 0.0 | 4.3 | 0.00 | 1.21 | 1.21 | 95 | 1009.1 |
| 20260507235835 | 54 | 78 | 0.9 | 4.3 | 0.00 | 1.21 | 1.21 | 95 | 1008.9 |
| 20260507235328 | 54 | 72 | 0.9 | 2.6 | 0.00 | 1.21 | 1.21 | 95 | 1009.0 |
| 20260507234831 | 55 | 59 | 1.7 | 3.5 | 0.00 | 1.21 | 1.21 | 94 | 1009.1 |
| 20260507234827 | 54 | 47 | 1.7 | 3.5 | 0.00 | 1.21 | 1.21 | 95 | 1009.0 |
| 20260507233825 | 55 | 34 | 0.9 | 3.5 | 0.00 | 1.21 | 1.21 | 94 | 1009.2 |
| 20260507233325 | 55 | 38 | 1.7 | 7.0 | 0.00 | 1.21 | 1.21 | 95 | 1009.3 |
| 20260507232812 | 55 | 85 | 0.9 | 7.0 | 0.00 | 1.21 | 1.21 | 94 | 1009.2 |
| 20260507232313 | 55 | 63 | 0.0 | 2.6 | 0.00 | 1.21 | 1.21 | 95 | 1009.2 |
| 20260507231806 | 55 | 49 | 0.9 | 2.6 | 0.00 | 1.21 | 1.21 | 95 | 1009.3 |
| 20260507231306 | 55 | 63 | 0.9 | 2.6 | 0.00 | 1.21 | 1.21 | 94 | 1009.1 |
| 20260507230805 | 55 | 41 | 0.9 | 3.5 | 0.00 | 1.21 | 1.21 | 95 | 1009.1 |
| 20260507230259 | 55 | 83 | 0.9 | 3.5 | 0.00 | 1.21 | 1.21 | 95 | 1008.9 |
| 20260507230254 | 55 | 77 | 0.9 | 3.5 | 0.00 | 1.21 | 1.21 | 95 | 1008.9 |
| 20260507225252 | 55 | 37 | 1.7 | 6.1 | 0.00 | 1.21 | 1.21 | 94 | 1008.9 |
| 20260507224750 | 55 | 41 | 2.6 | 6.1 | 0.00 | 1.21 | 1.21 | 94 | 1008.7 |
| 20260507224253 | 55 | 72 | 1.7 | 5.2 | 0.00 | 1.21 | 1.21 | 95 | 1008.7 |
| 20260507224249 | 55 | 62 | 1.7 | 5.2 | 0.00 | 1.21 | 1.21 | 94 | 1008.9 |
| 20260507223248 | 55 | 67 | 2.6 | 7.0 | 0.00 | 1.21 | 1.21 | 94 | 1008.7 |
| 20260507222749 | 55 | 41 | 1.7 | 7.0 | 0.00 | 1.21 | 1.21 | 95 | 1008.6 |
| 20260507222246 | 55 | 27 | 1.7 | 7.0 | 0.00 | 1.21 | 1.21 | 95 | 1008.6 |
| 20260507221744 | 55 | 62 | 1.7 | 6.1 | 0.00 | 1.21 | 1.21 | 95 | 1008.6 |
| 20260507221249 | 54 | 41 | 2.6 | 7.8 | 0.00 | 1.21 | 1.21 | 95 | 1008.6 |
| 20260507221245 | 55 | 60 | 1.7 | 7.8 | 0.00 | 1.21 | 1.21 | 95 | 1008.6 |
| 20260507220243 | 54 | 94 | 1.7 | 6.1 | 0.00 | 1.21 | 1.21 | 95 | 1008.8 |
| 20260507215742 | 54 | 28 | 1.7 | 6.1 | 0.00 | 1.21 | 1.21 | 95 | 1008.7 |
| 20260507215242 | 54 | 12 | 2.6 | 7.0 | 0.00 | 1.21 | 1.21 | 95 | 1008.6 |
| 20260507214743 | 54 | 58 | 2.6 | 7.8 | 0.00 | 1.21 | 1.21 | 95 | 1008.6 |
| 20260507214246 | 54 | 77 | 3.5 | 7.8 | 0.00 | 1.21 | 1.21 | 96 | 1008.4 |
| 20260507214242 | 54 | 70 | 3.5 | 7.8 | 0.00 | 1.21 | 1.21 | 96 | 1008.4 |
| 20260507213243 | 54 | 51 | 3.5 | 8.7 | 0.00 | 1.21 | 1.21 | 96 | 1008.4 |
| 20260507212746 | 55 | 65 | 2.6 | 8.7 | 0.01 | 1.21 | 1.21 | 96 | 1008.2 |
| 20260507212742 | 55 | 28 | 3.5 | 8.7 | 0.01 | 1.21 | 1.21 | 96 | 1008.3 |
| 20260507212346 | 55 | 44 | 3.5 | 8.7 | 0.01 | 1.21 | 1.21 | 97 | 1008.4 |
| 20260507211241 | 55 | 53 | 1.7 | 7.0 | 0.04 | 1.21 | 1.21 | 97 | 1008.2 |
| 20260507210740 | 55 | 49 | 2.6 | 8.7 | 0.04 | 1.21 | 1.21 | 97 | 1008.2 |
| 20260507210234 | 55 | 59 | 3.5 | 8.7 | 0.04 | 1.21 | 1.21 | 97 | 1008.1 |
| 20260507205735 | 55 | 34 | 3.5 | 8.7 | 0.04 | 1.21 | 1.21 | 97 | 1007.8 |
| 20260507205233 | 56 | 59 | 3.5 | 8.7 | 0.04 | 1.21 | 1.21 | 97 | 1007.9 |
| 20260507204732 | 56 | 14 | 3.5 | 7.8 | 0.04 | 1.21 | 1.21 | 97 | 1007.7 |
| 20260507204233 | 56 | 80 | 3.5 | 8.7 | 0.04 | 1.21 | 1.21 | 98 | 1007.7 |
| 20260507203730 | 56 | 64 | 3.5 | 8.7 | 0.04 | 1.21 | 1.21 | 97 | 1007.8 |
| 20260507203230 | 56 | 59 | 1.7 | 7.8 | 0.05 | 1.21 | 1.21 | 97 | 1007.7 |
| 20260507202729 | 56 | 333 | 1.7 | 7.0 | 0.05 | 1.20 | 1.20 | 98 | 1007.8 |
| 20260507202222 | 56 | 63 | 2.6 | 7.0 | 0.06 | 1.20 | 1.20 | 97 | 1007.7 |
| 20260507202218 | 57 | 60 | 1.7 | 7.8 | 0.06 | 1.20 | 1.20 | 97 | 1007.6 |
| 20260507201218 | 57 | 39 | 1.7 | 7.8 | 0.03 | 1.17 | 1.18 | 97 | 1007.5 |
| 20260507200722 | 58 | 72 | 2.6 | 7.0 | 0.03 | 1.17 | 1.17 | 98 | 1007.5 |
| 20260507200718 | 57 | 35 | 1.7 | 5.2 | 0.03 | 1.17 | 1.17 | 98 | 1007.5 |
| 20260507195716 | 58 | 41 | 2.6 | 7.0 | 0.03 | 1.17 | 1.17 | 98 | 1007.3 |
| 20260507195217 | 58 | 76 | 2.6 | 6.1 | 0.03 | 1.17 | 1.17 | 97 | 1007.5 |
| 20260507194714 | 58 | 65 | 2.6 | 7.0 | 0.03 | 1.17 | 1.17 | 97 | 1007.5 |
| 20260507194218 | 59 | 89 | 3.5 | 7.0 | 0.02 | 1.19 | 1.16 | 97 | 1007.4 |
| 20260507194214 | 58 | 86 | 2.6 | 7.0 | 0.03 | 1.18 | 1.17 | 97 | 1007.5 |
| 20260507193818 | 59 | 72 | 2.6 | 7.0 | 0.03 | 1.19 | 1.17 | 97 | 1007.4 |
| 20260507192713 | 59 | 48 | 2.6 | 8.7 | 0.01 | 1.18 | 1.15 | 97 | 1007.5 |
| 20260507192212 | 59 | 63 | 2.6 | 8.7 | 0.00 | 1.17 | 1.14 | 97 | 1007.5 |
| 20260507191710 | 59 | 41 | 2.6 | 10.4 | 0.00 | 1.17 | 1.14 | 97 | 1007.5 |
| 20260507191215 | 60 | 70 | 2.6 | 10.4 | 0.00 | 1.17 | 1.14 | 97 | 1007.1 |
| 20260507191211 | 60 | 32 | 3.5 | 10.4 | 0.00 | 1.17 | 1.14 | 97 | 1007.5 |
| 20260507190814 | 60 | 72 | 2.6 | 10.4 | 0.00 | 1.17 | 1.14 | 97 | 1006.7 |
| 20260507185713 | 61 | 38 | 1.7 | 5.2 | 0.00 | 1.17 | 1.14 | 96 | 1006.8 |
| 20260507185709 | 60 | 105 | 2.6 | 7.8 | 0.00 | 1.17 | 1.14 | 96 | 1006.4 |
| 20260507184706 | 61 | 56 | 1.7 | 6.1 | 0.00 | 1.17 | 1.14 | 96 | 1007.1 |
| 20260507184211 | 62 | 53 | 1.7 | 7.0 | 0.00 | 1.17 | 1.14 | 96 | 1007.6 |
| 20260507184206 | 61 | 33 | 1.7 | 7.0 | 0.00 | 1.17 | 1.14 | 96 | 1007.2 |
| 20260507183206 | 62 | 36 | 2.6 | 8.7 | 0.00 | 1.17 | 1.14 | 96 | 1007.4 |
| 20260507182704 | 63 | 69 | 2.6 | 8.7 | 0.00 | 1.17 | 1.14 | 94 | 1006.7 |
| 20260507182204 | 64 | 80 | 2.6 | 10.4 | 0.00 | 1.17 | 1.14 | 94 | 1006.8 |
| 20260507181701 | 65 | 44 | 3.5 | 10.4 | 0.00 | 1.17 | 1.14 | 93 | 1007.0 |
| 20260507181156 | 68 | 15 | 1.7 | 8.7 | 0.00 | 1.17 | 1.14 | 91 | 1006.7 |
| 20260507180647 | 71 | 78 | 0.0 | 3.5 | 0.00 | 1.17 | 1.14 | 97 | 1007.1 |
| 20260507180145 | 71 | 6 | 0.0 | 0.9 | 0.01 | 1.17 | 1.14 | 98 | 1007.1 |
| 20260507180141 | 71 | 6 | 0.0 | 0.9 | 0.01 | 1.17 | 1.14 | 98 | 1007.1 |
| 20260507175128 | 71 | 6 | 0.0 | 0.9 | 0.01 | 1.17 | 1.14 | 98 | 1007.2 |
| 20260507174556 | 71 | 6 | 0.0 | 0.9 | 0.01 | 1.17 | 1.14 | 99 | 1007.2 |
| 20260507174041 | 70 | 6 | 0.0 | 0.0 | 0.01 | 1.17 | 1.14 | 98 | 1007.0 |
| 20260507173528 | 70 | 5 | 0.0 | 0.9 | 0.01 | 1.17 | 1.14 | 99 | 1006.9 |
| 20260507173524 | 70 | 6 | 0.0 | 0.9 | 0.01 | 1.17 | 1.14 | 98 | 1006.8 |
| 20260507173128 | 71 | 359 | 0.0 | 0.9 | 0.01 | 1.17 | 1.14 | 99 | 1006.8 |
| 20260507172628 | 70 | 125 | 0.0 | 0.9 | 0.01 | 1.17 | 1.14 | 100 | 1006.5 |
| 20260507171512 | 70 | 125 | 0.0 | 0.9 | 0.01 | 1.17 | 1.14 | 100 | 1006.6 |
| 20260507171011 | 70 | 113 | 0.0 | 0.9 | 0.01 | 1.17 | 1.14 | 100 | 1006.8 |
| 20260507170928 | 69 | 113 | 0.0 | 0.9 | 0.00 | 1.16 | 1.13 | 100 | 1006.8 |
| 20260507165927 | 69 | 113 | 0.0 | 0.9 | 0.00 | 1.16 | 1.13 | 100 | 1007.0 |
| 20260507165354 | 69 | 113 | 0.0 | 0.9 | 0.00 | 1.16 | 1.13 | 100 | 1007.3 |
| 20260507165350 | 69 | 113 | 0.0 | 1.7 | 0.00 | 1.16 | 1.13 | 100 | 1007.4 |
| 20260507164348 | 69 | 132 | 0.0 | 1.7 | 0.00 | 1.16 | 1.13 | 100 | 1007.7 |
| 20260507163848 | 69 | 91 | 0.0 | 0.9 | 0.00 | 1.16 | 1.13 | 100 | 1007.8 |
| 20260507163330 | 69 | 91 | 0.0 | 0.9 | 0.00 | 1.16 | 1.13 | 100 | 1007.7 |
| 20260507162824 | 69 | 91 | 0.0 | 1.7 | 0.01 | 1.16 | 1.13 | 100 | 1008.0 |
| 20260507162321 | 69 | 91 | 0.0 | 1.7 | 0.02 | 1.16 | 1.13 | 100 | 1008.1 |
| 20260507161818 | 69 | 65 | 0.0 | 0.9 | 0.03 | 1.16 | 1.13 | 100 | 1008.2 |
| 20260507161257 | 69 | 65 | 0.0 | 3.5 | 0.04 | 1.16 | 1.13 | 100 | 1008.3 |
| 20260507160758 | 69 | 49 | 0.0 | 3.5 | 0.05 | 1.16 | 1.13 | 100 | 1008.3 |
| 20260507160258 | 68 | 108 | 0.0 | 0.9 | 0.05 | 1.16 | 1.13 | 100 | 1008.4 |
| 20260507155735 | 68 | 104 | 0.0 | 0.9 | 0.07 | 1.16 | 1.13 | 100 | 1008.2 |
| 20260507155233 | 68 | 104 | 0.0 | 0.0 | 0.10 | 1.16 | 1.13 | 100 | 1007.9 |
| 20260507154728 | 68 | 104 | 0.0 | 0.0 | 0.17 | 1.16 | 1.13 | 100 | 1007.9 |
| 20260507154230 | 68 | 104 | 0.0 | 0.0 | 0.21 | 1.16 | 1.13 | 100 | 1007.8 |
| 20260507154223 | 68 | 104 | 0.0 | 0.0 | 0.25 | 1.16 | 1.13 | 100 | 1008.0 |
| 20260507153200 | 67 | 104 | 0.0 | 0.0 | 0.29 | 1.16 | 1.13 | 100 | 1008.1 |
| 20260507152643 | 67 | 104 | 0.0 | 0.0 | 0.32 | 1.15 | 1.12 | 100 | 1008.0 |
| 20260507152134 | 67 | 104 | 0.0 | 0.0 | 0.36 | 1.14 | 1.11 | 100 | 1008.0 |
| 20260507151632 | 67 | 104 | 0.0 | 1.7 | 0.37 | 1.13 | 1.10 | 100 | 1008.2 |
| 20260507151110 | 67 | 97 | 0.0 | 1.7 | 0.37 | 1.12 | 1.09 | 100 | 1008.3 |
| 20260507150608 | 67 | 276 | 0.0 | 1.7 | 0.38 | 1.11 | 1.08 | 100 | 1008.4 |
| 20260507150104 | 67 | 276 | 0.9 | 1.7 | 0.40 | 1.10 | 1.07 | 100 | 1008.5 |
| 20260507145602 | 67 | 283 | 0.9 | 9.6 | 0.40 | 1.09 | 1.06 | 100 | 1008.5 |
| 20260507145045 | 67 | 276 | 0.9 | 9.6 | 0.35 | 1.04 | 1.02 | 100 | 1008.3 |
| 20260507144540 | 67 | 163 | 0.0 | 3.5 | 0.28 | 0.97 | 0.95 | 100 | 1008.5 |
| 20260507144034 | 67 | 162 | 0.0 | 0.0 | 0.23 | 0.92 | 0.90 | 100 | 1008.7 |
| 20260507143530 | 67 | 124 | 0.0 | 0.0 | 0.20 | 0.89 | 0.87 | 100 | 1008.6 |
| 20260507143028 | 68 | 66 | 0.0 | 0.0 | 0.13 | 0.82 | 0.80 | 100 | 1008.8 |
| 20260507143024 | 68 | 66 | 0.0 | 0.0 | 0.17 | 0.86 | 0.84 | 100 | 1008.7 |
| 20260507142025 | 68 | 66 | 0.0 | 0.0 | 0.08 | 0.77 | 0.75 | 100 | 1008.9 |
| 20260507141520 | 68 | 66 | 0.0 | 0.0 | 0.07 | 0.76 | 0.73 | 100 | 1008.8 |
| 20260507141018 | 68 | 66 | 0.0 | 0.0 | 0.05 | 0.74 | 0.72 | 100 | 1008.7 |
| 20260507140516 | 68 | 109 | 0.0 | 0.0 | 0.03 | 0.72 | 0.69 | 100 | 1009.0 |
| 20260507140012 | 68 | 110 | 0.0 | 0.0 | 0.01 | 0.70 | 0.67 | 100 | 1008.9 |
| 20260507135512 | 68 | 109 | 0.0 | 0.0 | 0.00 | 0.69 | 0.66 | 100 | 1008.8 |
| 20260507135013 | 68 | 110 | 0.0 | 0.0 | 0.00 | 0.69 | 0.66 | 100 | 1008.8 |
| 20260507134506 | 68 | 109 | 0.0 | 0.0 | 0.00 | 0.69 | 0.66 | 100 | 1008.8 |
| 20260507134004 | 68 | 110 | 0.0 | 0.0 | 0.00 | 0.69 | 0.66 | 100 | 1008.7 |
| 20260507133506 | 68 | 110 | 0.0 | 0.0 | 0.00 | 0.69 | 0.66 | 100 | 1008.8 |
| 20260507133502 | 68 | 110 | 0.0 | 0.0 | 0.00 | 0.69 | 0.66 | 100 | 1008.8 |
| 20260507132433 | 68 | 109 | 0.0 | 0.0 | 0.00 | 0.69 | 0.66 | 100 | 1008.9 |
| 20260507131935 | 68 | 109 | 0.0 | 0.0 | 0.00 | 0.69 | 0.66 | 100 | 1008.8 |
| 20260507131931 | 68 | 124 | 0.0 | 0.0 | 0.00 | 0.69 | 0.66 | 100 | 1008.8 |
| 20260507130929 | 67 | 124 | 0.0 | 0.0 | 0.00 | 0.69 | 0.66 | 100 | 1008.7 |
| 20260507130402 | 67 | 124 | 0.0 | 0.0 | 0.00 | 0.69 | 0.66 | 100 | 1008.6 |
| 20260507125902 | 67 | 124 | 0.0 | 0.0 | 0.00 | 0.69 | 0.66 | 100 | 1008.6 |
| 20260507125356 | 67 | 124 | 0.0 | 0.0 | 0.00 | 0.69 | 0.66 | 100 | 1008.6 |
| 20260507124849 | 67 | 124 | 0.0 | 0.0 | 0.00 | 0.69 | 0.66 | 100 | 1008.7 |
| 20260507124341 | 67 | 124 | 0.0 | 0.0 | 0.00 | 0.69 | 0.66 | 100 | 1008.7 |
| 20260507123836 | 67 | 148 | 0.0 | 0.0 | 0.00 | 0.69 | 0.66 | 100 | 1008.7 |
| 20260507123334 | 67 | 149 | 0.0 | 0.0 | 0.00 | 0.69 | 0.66 | 100 | 1008.8 |
| 20260507123330 | 67 | 148 | 0.0 | 0.0 | 0.00 | 0.69 | 0.66 | 100 | 1008.9 |
| 20260507122327 | 67 | 149 | 0.0 | 0.0 | 0.00 | 0.69 | 0.66 | 100 | 1009.0 |
| 20260507121824 | 67 | 148 | 0.0 | 0.0 | 0.00 | 0.69 | 0.66 | 100 | 1008.9 |
| 20260507121324 | 67 | 148 | 0.0 | 0.0 | 0.00 | 0.69 | 0.66 | 100 | 1009.0 |
| 20260507120817 | 66 | 149 | 0.0 | 0.0 | 0.00 | 0.69 | 0.66 | 100 | 1009.1 |
| 20260507120318 | 66 | 148 | 0.0 | 0.0 | 0.00 | 0.69 | 0.66 | 100 | 1009.0 |
| 20260507115811 | 66 | 148 | 0.0 | 0.0 | 0.00 | 0.69 | 0.66 | 100 | 1009.1 |
| 20260507115307 | 66 | 149 | 0.0 | 0.0 | 0.00 | 0.69 | 0.66 | 100 | 1009.2 |
| 20260507114800 | 66 | 148 | 0.0 | 0.0 | 0.01 | 0.69 | 0.66 | 100 | 1009.3 |
| 20260507114257 | 66 | 148 | 0.0 | 0.0 | 0.01 | 0.69 | 0.66 | 100 | 1009.4 |
| 20260507113751 | 66 | 148 | 0.0 | 0.0 | 0.01 | 0.69 | 0.66 | 100 | 1009.3 |
| 20260507113226 | 66 | 149 | 0.0 | 0.0 | 0.02 | 0.69 | 0.66 | 100 | 1009.3 |
| 20260507112710 | 66 | 148 | 0.0 | 0.0 | 0.02 | 0.69 | 0.66 | 100 | 1009.3 |
| 20260507112201 | 66 | 148 | 0.0 | 0.0 | 0.02 | 0.69 | 0.66 | 100 | 1009.3 |
| 20260507111659 | 66 | 149 | 0.0 | 0.0 | 0.02 | 0.69 | 0.66 | 100 | 1009.4 |
| 20260507111631 | 66 | 148 | 0.0 | 0.0 | 0.03 | 0.69 | 0.66 | 100 | 1009.5 |
| 20260507110630 | 66 | 149 | 0.0 | 0.0 | 0.03 | 0.69 | 0.66 | 100 | 1009.4 |
| 20260507110128 | 66 | 149 | 0.0 | 0.0 | 0.03 | 0.69 | 0.66 | 100 | 1009.2 |
| 20260507105553 | 66 | 148 | 0.0 | 0.0 | 0.03 | 0.69 | 0.66 | 100 | 1009.2 |
| 20260507105030 | 66 | 149 | 0.0 | 0.0 | 0.03 | 0.68 | 0.66 | 100 | 1009.2 |
| 20260507104530 | 66 | 149 | 0.0 | 0.0 | 0.03 | 0.68 | 0.65 | 100 | 1009.2 |
| 20260507104029 | 66 | 149 | 0.0 | 0.0 | 0.03 | 0.68 | 0.65 | 100 | 1009.1 |
| 20260507103524 | 66 | 148 | 0.0 | 0.0 | 0.02 | 0.67 | 0.64 | 100 | 1009.1 |
| 20260507103023 | 66 | 149 | 0.0 | 0.0 | 0.02 | 0.67 | 0.64 | 100 | 1008.9 |
| 20260507102523 | 66 | 149 | 0.0 | 0.0 | 0.02 | 0.67 | 0.64 | 100 | 1008.9 |
| 20260507102018 | 66 | 149 | 0.0 | 0.0 | 0.02 | 0.67 | 0.64 | 100 | 1009.2 |
| 20260507101501 | 66 | 149 | 0.0 | 0.0 | 0.02 | 0.67 | 0.64 | 100 | 1009.3 |
| 20260507100959 | 66 | 149 | 0.0 | 0.0 | 0.01 | 0.66 | 0.63 | 100 | 1009.2 |
| 20260507100430 | 66 | 149 | 0.0 | 0.0 | 0.01 | 0.66 | 0.63 | 100 | 1009.0 |
| 20260507095929 | 66 | 149 | 0.0 | 0.0 | 0.01 | 0.66 | 0.63 | 100 | 1009.0 |
| 20260507095421 | 66 | 149 | 0.0 | 0.0 | 0.01 | 0.66 | 0.63 | 100 | 1008.9 |
| 20260507094920 | 66 | 149 | 0.0 | 0.0 | 0.01 | 0.65 | 0.62 | 100 | 1009.0 |
| 20260507094417 | 66 | 149 | 0.0 | 0.0 | 0.03 | 0.65 | 0.62 | 100 | 1009.0 |
| 20260507093853 | 66 | 149 | 0.0 | 0.0 | 0.05 | 0.65 | 0.62 | 100 | 1008.9 |
| 20260507093355 | 66 | 149 | 0.0 | 0.0 | 0.08 | 0.65 | 0.62 | 100 | 1008.7 |
| 20260507093351 | 66 | 149 | 0.0 | 0.0 | 0.09 | 0.65 | 0.62 | 100 | 1008.9 |
| 20260507092345 | 66 | 149 | 0.0 | 0.0 | 0.10 | 0.65 | 0.62 | 100 | 1008.9 |
| 20260507092341 | 66 | 148 | 0.0 | 0.0 | 0.10 | 0.65 | 0.62 | 100 | 1009.0 |
| 20260507091331 | 66 | 148 | 0.0 | 0.0 | 0.11 | 0.65 | 0.62 | 100 | 1009.0 |
| 20260507090832 | 66 | 148 | 0.0 | 0.0 | 0.12 | 0.65 | 0.62 | 100 | 1009.0 |
| 20260507090329 | 66 | 149 | 0.0 | 0.0 | 0.12 | 0.65 | 0.62 | 100 | 1008.9 |
| 20260507085830 | 66 | 149 | 0.0 | 0.0 | 0.13 | 0.65 | 0.62 | 100 | 1009.2 |
| 20260507085330 | 66 | 149 | 0.0 | 0.9 | 0.14 | 0.64 | 0.61 | 100 | 1009.4 |
| 20260507085326 | 66 | 149 | 0.0 | 0.0 | 0.14 | 0.65 | 0.62 | 100 | 1009.2 |
| 20260507084310 | 66 | 149 | 0.0 | 0.9 | 0.12 | 0.61 | 0.59 | 100 | 1009.1 |
| 20260507083809 | 66 | 148 | 0.0 | 0.9 | 0.10 | 0.59 | 0.56 | 100 | 1009.4 |
| 20260507083303 | 66 | 214 | 0.0 | 0.9 | 0.08 | 0.56 | 0.54 | 100 | 1009.7 |
| 20260507082759 | 66 | 214 | 0.0 | 0.9 | 0.07 | 0.55 | 0.52 | 100 | 1009.8 |
| 20260507082232 | 66 | 214 | 0.0 | 0.9 | 0.08 | 0.55 | 0.52 | 100 | 1009.9 |
| 20260507081732 | 66 | 214 | 0.0 | 0.9 | 0.09 | 0.55 | 0.52 | 100 | 1009.7 |
| 20260507081227 | 66 | 214 | 0.0 | 0.9 | 0.08 | 0.54 | 0.51 | 100 | 1009.6 |
| 20260507080704 | 66 | 143 | 0.0 | 0.9 | 0.07 | 0.53 | 0.50 | 99 | 1009.5 |
| 20260507080202 | 66 | 132 | 0.0 | 0.9 | 0.06 | 0.52 | 0.49 | 99 | 1008.5 |
| 20260507075635 | 66 | 51 | 0.0 | 0.9 | 0.05 | 0.51 | 0.48 | 99 | 1009.5 |
| 20260507075137 | 66 | 51 | 0.0 | 0.0 | 0.04 | 0.50 | 0.47 | 99 | 1009.8 |
| 20260507075133 | 66 | 51 | 0.0 | 0.0 | 0.03 | 0.49 | 0.47 | 99 | 1009.9 |
| 20260507074051 | 66 | 51 | 0.0 | 0.0 | 0.03 | 0.49 | 0.46 | 99 | 1009.9 |
| 20260507073551 | 66 | 51 | 0.0 | 0.0 | 0.02 | 0.48 | 0.45 | 99 | 1010.1 |
| 20260507073026 | 66 | 51 | 0.0 | 0.0 | 0.02 | 0.48 | 0.45 | 99 | 1009.8 |
| 20260507072525 | 66 | 51 | 0.0 | 0.0 | 0.01 | 0.47 | 0.44 | 99 | 1009.7 |
| 20260507072025 | 66 | 51 | 0.0 | 0.9 | 0.01 | 0.47 | 0.44 | 99 | 1009.9 |
| 20260507071525 | 66 | 51 | 0.0 | 0.9 | 0.00 | 0.46 | 0.43 | 99 | 1009.9 |
| 20260507071026 | 65 | 48 | 0.0 | 0.9 | 0.00 | 0.46 | 0.43 | 99 | 1009.9 |
| 20260507070525 | 66 | 48 | 0.0 | 0.0 | 0.00 | 0.46 | 0.43 | 99 | 1010.2 |
| 20260507070023 | 66 | 48 | 0.0 | 0.0 | 0.00 | 0.46 | 0.43 | 99 | 1010.4 |
| 20260507065501 | 66 | 48 | 0.0 | 0.0 | 0.00 | 0.46 | 0.43 | 99 | 1010.2 |
| 20260507065456 | 66 | 49 | 0.0 | 0.0 | 0.00 | 0.46 | 0.43 | 99 | 1010.1 |
| 20260507064455 | 66 | 48 | 0.0 | 0.0 | 0.00 | 0.46 | 0.43 | 99 | 1010.2 |
| 20260507063951 | 66 | 49 | 0.0 | 0.0 | 0.00 | 0.46 | 0.43 | 99 | 1010.3 |
| 20260507063451 | 66 | 48 | 0.0 | 0.0 | 0.00 | 0.46 | 0.43 | 99 | 1010.5 |
| 20260507062926 | 66 | 48 | 0.0 | 0.0 | 0.00 | 0.46 | 0.43 | 99 | 1010.6 |
| 20260507062407 | 66 | 49 | 0.0 | 0.0 | 0.00 | 0.46 | 0.43 | 99 | 1010.7 |
| 20260507061903 | 66 | 48 | 0.0 | 0.0 | 0.01 | 0.46 | 0.43 | 99 | 1011.0 |
| 20260507061855 | 66 | 48 | 0.0 | 0.9 | 0.07 | 0.46 | 0.43 | 99 | 1011.1 |
| 20260507060828 | 66 | 48 | 0.0 | 0.9 | 0.16 | 0.46 | 0.43 | 99 | 1011.1 |
| 20260507060329 | 66 | 48 | 0.0 | 0.0 | 0.18 | 0.46 | 0.43 | 98 | 1010.6 |
| 20260507055831 | 66 | 48 | 0.0 | 0.0 | 0.22 | 0.46 | 0.43 | 98 | 1010.6 |
| 20260507055827 | 66 | 48 | 0.0 | 0.0 | 0.19 | 0.46 | 0.43 | 98 | 1010.5 |
| 20260507054825 | 66 | 48 | 0.0 | 0.9 | 0.28 | 0.46 | 0.43 | 98 | 1010.9 |
| 20260507054325 | 66 | 48 | 0.0 | 0.9 | 0.33 | 0.46 | 0.43 | 98 | 1010.5 |
| 20260507053826 | 67 | 48 | 0.0 | 0.9 | 0.38 | 0.46 | 0.43 | 98 | 1010.4 |
| 20260507053325 | 67 | 48 | 0.0 | 0.9 | 0.42 | 0.46 | 0.43 | 98 | 1010.1 |
| 20260507052821 | 67 | 47 | 0.0 | 0.9 | 0.42 | 0.46 | 0.43 | 98 | 1010.4 |
| 20260507052321 | 67 | 48 | 0.9 | 3.5 | 0.42 | 0.46 | 0.43 | 98 | 1010.4 |
| 20260507051817 | 67 | 116 | 0.9 | 3.5 | 0.41 | 0.45 | 0.42 | 97 | 1010.3 |
| 20260507051309 | 67 | 104 | 0.0 | 2.6 | 0.33 | 0.37 | 0.36 | 97 | 1012.1 |
| 20260507050810 | 67 | 111 | 0.0 | 0.9 | 0.27 | 0.30 | 0.30 | 97 | 1012.5 |
| 20260507050307 | 67 | 111 | 0.0 | 0.9 | 0.25 | 0.28 | 0.25 | 97 | 1012.3 |
| 20260507045803 | 67 | 111 | 0.0 | 0.9 | 0.24 | 0.27 | 0.24 | 96 | 1012.1 |
| 20260507045302 | 67 | 95 | 0.0 | 0.9 | 0.21 | 0.24 | 0.22 | 96 | 1012.5 |